Cairns, Queensland

10:17 AM AEST on September 01, 2016 (GMT +1000)
Cairns International

Weather History for YBCS - July, 2012

Change the Weather History Date:

Wednesday, July 25, 2012

  Actual Average Record
Temperature  
Mean Temperature 72 °F -  
Max Temperature 79 °F 80 °F 82 °F (2015)
Min Temperature 66 °F 64 °F 32 °F (2004)
Cooling Degree Days 8    
Growing Degree Days 22 (Base 50)    
Moisture  
Dew Point 59 °F    
Average Humidity 66    
Maximum Humidity 83    
Minimum Humidity 30    
Precipitation  
Precipitation 0.00 in 0.03 in - ()
Sea Level Pressure  
Sea Level Pressure 30.04 in    
Wind  
Wind Speed 10 mph ()    
Max Wind Speed 17 mph    
Max Gust Speed -    
Visibility 7.7 miles    
Events      
Averages and records for this station are not official NWS values.
T = Trace of Precipitation, MM = Missing Value Source: Averaged Metar Reports

Daily Weather History Graph

Daily Weather History Graph

Search for Another Location

Airport or City:

Trip Planner

Search our weather history database for the weather conditions in past years. The results will help you decide how hot, cold, wet, or windy it might be!

Date:

Astronomy

Jul. 25, 2012 Rise Set
Actual Time 6:44 AM AEST 6:02 PM AEST
Civil Twilight 6:21 AM AEST 6:25 PM AEST
Nautical Twilight 5:55 AM AEST 6:51 PM AEST
Astronomical Twilight 5:29 AM AEST 7:17 PM AEST
Moon 10:43 AM AEST (7/25) 11:35 PM AEST (7/25)
Length of Visible Light 12h 03m
Length of Day
11h 17m
Waxing Crescent, 36% of the Moon is Illuminated
Jul 25
Waxing Crescent
Jul 26
First Quarter
Aug 2
Full
Aug 10
Last Quarter
Aug 18
New

Hourly Weather History & Observations

Time (AEST) Temp. Dew Point Humidity Pressure Visibility Wind Dir Wind Speed Gust Speed Precip Events Conditions
12:00 AM 68.0 °F 60.8 °F 78% 30.04 in 6.2 mi South 9.2 mph - N/A   Scattered Clouds
12:30 AM 68.0 °F 59.0 °F 73% 30.04 in 6.2 mi South 10.4 mph - N/A   Scattered Clouds
1:00 AM 68 °F 59 °F 67% 30.05 in - South 12.7 mph - -  
1:00 AM 68.0 °F 59.0 °F 73% 30.04 in 6.2 mi South 12.7 mph - N/A   Partly Cloudy
1:30 AM 68.0 °F 60.8 °F 78% 30.04 in 6.2 mi South 11.5 mph - N/A   Partly Cloudy
2:00 AM 68.0 °F 60.8 °F 78% 30.04 in 6.2 mi South 12.7 mph - N/A   Partly Cloudy
2:30 AM 68.0 °F 59.0 °F 73% 30.04 in 6.2 mi South 10.4 mph - N/A   Partly Cloudy
3:00 AM 68 °F 60 °F 68% 30.04 in - South 10.4 mph - -  
3:00 AM 68.0 °F 59.0 °F 73% 30.04 in 6.2 mi South 10.4 mph - N/A   Scattered Clouds
3:30 AM 68.0 °F 60.8 °F 78% 30.04 in 6.2 mi South 9.2 mph - N/A   Partly Cloudy
4:00 AM 68 °F 60 °F 68% 30.04 in - South 10.4 mph - -  
4:00 AM 68.0 °F 60.8 °F 78% 30.04 in 6.2 mi South 10.4 mph - N/A   Partly Cloudy
4:30 AM 68.0 °F 60.8 °F 78% 30.04 in 6.2 mi South 10.4 mph - N/A   Partly Cloudy
5:00 AM 68.0 °F 60.8 °F 78% 30.04 in 6.2 mi South 10.4 mph - N/A   Partly Cloudy
5:30 AM 68.0 °F 60.8 °F 78% 30.04 in 6.2 mi South 10.4 mph - N/A   Partly Cloudy
6:00 AM 68 °F 60 °F 69% 30.05 in 19 mi South 11.5 mph - -   Partly Cloudy
6:00 AM 68.0 °F 60.8 °F 78% 30.04 in 6.2 mi South 11.5 mph - N/A   Partly Cloudy
6:30 AM 68.0 °F 60.8 °F 78% 30.04 in 6.2 mi South 11.5 mph - N/A   Partly Cloudy
7:00 AM 68 °F 60 °F 70% 30.07 in - South 11.5 mph - -  
7:00 AM 68.0 °F 60.8 °F 78% 30.06 in 6.2 mi South 11.5 mph - N/A   Partly Cloudy
7:30 AM 69.8 °F 60.8 °F 73% 30.06 in 6.2 mi South 10.4 mph - N/A   Partly Cloudy
8:00 AM 69.8 °F 60.8 °F 73% 30.06 in 6.2 mi South 11.5 mph - N/A   Partly Cloudy
8:30 AM 71.6 °F 60.8 °F 69% 30.09 in 6.2 mi South 10.4 mph - N/A   Scattered Clouds
9:00 AM 72 °F 61 °F 61% 30.10 in 19 mi South 12.7 mph - -   Partly Cloudy
9:00 AM 71.6 °F 60.8 °F 69% 30.09 in 6.2 mi South 12.7 mph - N/A   Scattered Clouds
9:30 AM 73.4 °F 60.8 °F 65% 30.09 in 6.2 mi South 11.5 mph - N/A   Partly Cloudy
10:00 AM 74 °F 61 °F 55% 30.11 in - SSE 11.5 mph - -  
10:00 AM 73.4 °F 60.8 °F 65% 30.09 in 6.2 mi SSE 11.5 mph - N/A   Partly Cloudy
10:30 AM 77.0 °F 60.8 °F 57% 30.09 in 6.2 mi SSE 17.3 mph - N/A   Partly Cloudy
11:00 AM 77.0 °F 59.0 °F 54% 30.06 in 6.2 mi ESE 15.0 mph - N/A   Partly Cloudy
11:30 AM 77.0 °F 60.8 °F 57% 30.06 in 6.2 mi ESE 12.7 mph - N/A   Partly Cloudy
12:00 PM 78 °F 60 °F 43% 30.06 in 19 mi ESE 12.7 mph - -   Partly Cloudy
12:00 PM 78.8 °F 59.0 °F 51% 30.06 in 6.2 mi ESE 12.7 mph - N/A   Partly Cloudy
12:30 PM 78.8 °F 57.2 °F 47% 30.04 in 6.2 mi ESE 13.8 mph - N/A   Partly Cloudy
1:00 PM 79 °F 53 °F 30% 30.04 in - SE 15.0 mph - -  
1:00 PM 78.8 °F 53.6 °F 42% 30.04 in 6.2 mi SE 15.0 mph - N/A   Partly Cloudy
1:30 PM 78.8 °F 55.4 °F 44% 30.01 in 6.2 mi SE 12.7 mph - N/A   Partly Cloudy
2:00 PM 78.8 °F 51.8 °F 39% 30.01 in 6.2 mi SE 11.5 mph - N/A   Partly Cloudy
2:30 PM 78.8 °F 51.8 °F 39% 29.98 in 6.2 mi ESE 10.4 mph - N/A   Partly Cloudy
3:00 PM 78 °F 53 °F 30% 29.98 in 19 mi ESE 11.5 mph - -   Partly Cloudy
3:00 PM 78.8 °F 51.8 °F 39% 29.98 in 6.2 mi ESE 11.5 mph - N/A   Partly Cloudy
3:30 PM 78.8 °F 57.2 °F 47% 29.98 in 6.2 mi ESE 11.5 mph - N/A   Partly Cloudy
4:00 PM 76 °F 58 °F 44% 29.99 in - SE 9.2 mph - -  
4:00 PM 77.0 °F 59.0 °F 54% 29.98 in 6.2 mi SE 9.2 mph - N/A   Partly Cloudy
4:30 PM 75.2 °F 59.0 °F 57% 29.98 in 6.2 mi SE 13.8 mph - N/A   Partly Cloudy
5:00 PM 73.4 °F 59.0 °F 61% 29.98 in 6.2 mi SE 15.0 mph - N/A   Partly Cloudy
5:30 PM 71.6 °F 60.8 °F 69% 30.01 in 6.2 mi SE 13.8 mph - N/A   Partly Cloudy
6:00 PM 70 °F 61 °F 66% 30.02 in 19 mi SE 10.4 mph - -   Partly Cloudy
6:00 PM 69.8 °F 60.8 °F 73% 30.01 in 6.2 mi SE 10.4 mph - N/A   Partly Cloudy
6:30 PM 68.0 °F 59.0 °F 73% 30.01 in 6.2 mi South 8.1 mph - N/A   Partly Cloudy
7:00 PM 68 °F 60 °F 70% 30.04 in - SSE 8.1 mph - -  
7:00 PM 68.0 °F 60.8 °F 78% 30.04 in 6.2 mi SSE 8.1 mph - N/A   Partly Cloudy
7:30 PM 68.0 °F 60.8 °F 78% 30.04 in 6.2 mi South 10.4 mph - N/A   Partly Cloudy
8:00 PM 68.0 °F 59.0 °F 73% 30.04 in 6.2 mi South 8.1 mph - N/A   Partly Cloudy
8:30 PM 68.0 °F 60.8 °F 78% 30.06 in 6.2 mi South 8.1 mph - N/A   Partly Cloudy
9:00 PM 67 °F 61 °F 76% 30.06 in 19 mi South 6.9 mph - -   Partly Cloudy
9:00 PM 68.0 °F 60.8 °F 78% 30.06 in 6.2 mi South 6.9 mph - N/A   Partly Cloudy
9:30 PM 66.2 °F 60.8 °F 83% 30.06 in 6.2 mi South 8.1 mph - N/A   Partly Cloudy
10:00 PM 66 °F 61 °F 78% 30.07 in - South 8.1 mph - -  
10:00 PM 66.2 °F 60.8 °F 83% 30.06 in 6.2 mi South 8.1 mph - N/A   Partly Cloudy
10:30 PM 68.0 °F 60.8 °F 78% 30.06 in 6.2 mi South 10.4 mph - N/A   Partly Cloudy
11:00 PM 66.2 °F 60.8 °F 83% 30.06 in - South 9.2 mph - N/A   Clear
11:30 PM 66.2 °F 60.8 °F 83% 30.06 in - SSE 6.9 mph - N/A   Clear